Back to catalog

STARLINK-32039

AliveCommunicationsVLEO
NORAD 60604·PAYLOAD·🇺🇸 United States

Launched Aug 20, 2024 from Cape Canaveral Space Force Station

Loading…

Next Passes (next 24 hours)

TLE

FreshSource: CelesTrak SupGP

Epoch: Sep 14, 2026, 21:22 UTC

1 60604C 24150X   26257.89076389 -.00042181  00000+0 -12461-2 0  2570
2 60604  53.1570 149.6247 0001289  88.4410 104.0951 15.34416039    14

Track STARLINK-32039 in real time with AllMySat

Download on the App Store